Regional Weather Roundup
Issued by NWS

Home | Current Version | Previous Version | Text Only | Print | Product List | Glossary Off
Versions: 1 2 3 4 5 6 7 8 9 10 11 12 13 14 15 16 17 18 19 20 21 22 23 24 25 26 27 28 29 30 31 32 33 34 35 36 37 38 39 40 41 42 43 44 45 46 47 48 49 50

122
ASUS43 KMPX 252001
RWRMN
WEATHER ROUNDUP FOR MINNESOTA
NATIONAL WEATHER SERVICE TWIN CITIES/CHANHASSEN MN
300 PM CDT THU MAY 25 2017


NOTE: "FAIR" INDICATES FEW OR NO CLOUDS BELOW 12,000 FEET WITH NO
SIGNIFICANT WEATHER AND/OR OBSTRUCTIONS TO VISIBILITY. N/A MEANS
CURRENT SKY AND/OR WEATHER CONDITIONS ARE NOT AVAILABLE.

MNZ060>063-068>070-252100-
   Twin Cities Metro

CITY           SKY/WX    TMP DP  RH WIND       PRES   REMARKS
TWIN CITIES    MOSUNNY   69  49  48 S9G18     29.65F
ST PAUL        MOSUNNY   67  50  54 SE14      29.65F
CRYSTAL        MOSUNNY   68  47  46 SE9G18    29.63F
BLAINE         MOSUNNY   70  50  49 S8G18     29.64F
LAKEVILLE      MOSUNNY   68  52  56 SE8       29.65S
EDEN PRAIRIE   MOSUNNY   69  49  48 SE9G20    29.64F
SOUTH ST PAUL  MOSUNNY   67  48  50 SE7G17    29.65F
LAKE ELMO      PTSUNNY   68  52  56 S9G17     29.67S
$$
MNZ001>005-007-008-013>017-022>024-027-028-252100-
   Northwest Minnesota

CITY           SKY/WX    TMP DP  RH WIND       PRES   REMARKS
BEMIDJI        PTSUNNY   65  45  48 SE18G24   29.60S
HALLOCK        PTSUNNY   66  45  45 SE25G31   29.50S
ROSEAU         MOSUNNY   66  48  52 SE18G24   29.56S
WARROAD        CLOUDY    68  48  49 SE20G25   29.57F
CROOKSTON      CLOUDY    66  45  45 S21G30    29.52S
FOSSTON        PTSUNNY   66  45  45 SE16G24   29.56F
DETROIT LAKES  MOSUNNY   64  45  48 S20G28    29.57S
MOORHEAD       PTSUNNY   66  46  48 S23G29    29.51F
PARK RAPIDS    LGT RAIN  68  43  40 S17G25    29.59F
MAHNOMEN       CLOUDY    66  46  48 SE17G23   29.55S
$$
MNZ006-009>011-018-025>026-252100-
   North Central Minnesota

CITY           SKY/WX    TMP DP  RH WIND       PRES   REMARKS
BAUDETTE       MOSUNNY   67  45  45 SE16G23   29.59F
FLAG ISLAND    CLOUDY    57  48  72 S12       29.58F
INTL FALLS     PTSUNNY   68  44  42 S12G21    29.63F
WASKISH        PTSUNNY   66  46  48 SE9G18    29.60S
BIG FORK       PTSUNNY   66  46  48 SE9G16    29.64F
LONGVILLE      CLOUDY    63  46  55 SE10G18   29.63S
GRAND RAPIDS   PTSUNNY   65  46  50 S12G22    29.66F
CRANE LAKE     MOSUNNY   64  43  45 S9        29.69S
ORR            PTSUNNY   68  41  37 SE7G20    29.63F
COOK           PTSUNNY   66  45  45 SE13      29.67F
WALKER         CLOUDY    63  46  54 S16       29.61S
$$
MNZ012-019>021-037-252100-
   Northeast Minnesota

CITY           SKY/WX    TMP DP  RH WIND       PRES   REMARKS
DULUTH         MOSUNNY   63  47  55 E13G22    29.69F
ELY            MOSUNNY   64  43  45 SE13G21   29.69F
HIBBING        PTSUNNY   62  44  51 SE12G21   29.67F
EVELETH        PTSUNNY   65  40  40 SE10G16   29.69F
DULUTH HARBOR  MOSUNNY   50  45  81 E9        29.71F
TWO HARBORS    SUNNY     64  50  59 E15G21    29.69F
SILVER BAY     SUNNY     61  45  55 E13G18    29.71F
GRAND MARAIS     N/A     52  42  69 NE6       29.74F
G MARAIS ARPRT SUNNY     61  39  44 SE7       29.76S
$$
MNZ029>031-032-039>041-046>048-054>057-064-252100-
   West Central Minnesota

CITY           SKY/WX    TMP DP  RH WIND       PRES   REMARKS
FERGUS FALLS   CLOUDY    66  46  48 S22G29    29.53S
WHEATON        CLOUDY    66  52  59 SE17G23   29.53F
MORRIS         CLOUDY    66  50  55 S24G30    29.55R
ALEXANDRIA     PTSUNNY   68  47  46 S20G32    29.60R
ELBOW LAKE     CLOUDY    64  49  57 SE22      29.56S
WADENA         PTSUNNY   66  46  48 SE21G28   29.59F
GLENWOOD       MOSUNNY   68  48  49 SE22G31   29.60S
APPLETON       CLOUDY    68  48  49 S17G24    29.55S
BENSON         PTSUNNY   70  48  46 S20G26    29.58S
ORTONVILLE     CLOUDY    66  50  55 S9G21     29.53R
MADISON        CLOUDY    70  52  52 S15       29.53S
WILLMAR        FAIR      72  50  46 SE18      29.60S
$$
MNZ033>034-036-042>043-049>051-058-059-252100-
   Central Minnesota

CITY           SKY/WX    TMP DP  RH WIND       PRES   REMARKS
ST CLOUD       CLOUDY    66  49  54 S16G23    29.62F
SAUK CENTRE    MOCLDY    67  48  50 SE16G24   29.62R
PAYNESVILLE    PTSUNNY   67  46  47 SE17G23   29.62S
AITKIN         PTSUNNY   63  48  59 S6        29.64S
PINE RIVER     CLOUDY    64  48  55 S14G22    29.66F
BRAINERD       CLOUDY    64  47  53 SE14      29.63F
STAPLES        MOSUNNY   64  45  48 SE13G21   29.61F
LONG PRAIRIE   PTSUNNY   64  46  52 E16G25    29.62R
LITTLE FALLS   PTSUNNY   64  45  48 E12G18    29.63S
LITCHFIELD     MOSUNNY   68  52  56 SE12G22   29.63R
BUFFALO        MOSUNNY   66  47  50 SE7       29.64S
MAPLE LAKE     MOSUNNY   69  52  55 SE6       29.65R
HUTCHINSON     MOSUNNY   67  52  57 SE10      29.64R
$$
MNZ037-044-045-052-053-252100-
   East Central Minnesota

CITY           SKY/WX    TMP DP  RH WIND       PRES   REMARKS
PRINCETON      MOSUNNY   70  50  49 SE10G16   29.64F
MORA           PTSUNNY   63  46  55 SE5       29.67F
CAMBRIDGE      MOSUNNY   70  52  52 SE12      29.63F
RUSH CITY      CLOUDY    66  49  53 S7        29.66S HAZE
MOOSE LAKE     MOSUNNY   68  45  42 SE7       29.64F
HINCKLEY       MOCLDY    68  50  52 S8G16     29.65F
CLOQUET        SUNNY     61  45  55 E13       29.68F
MCGREGOR       MOSUNNY   68  48  49 SE8G16    29.65F
$$
MNZ071>073-080-081-089-090-097-098-252100-
   Southwest Minnesota

CITY           SKY/WX    TMP DP  RH WIND       PRES   REMARKS
MONTEVIDEO     CLOUDY    70  52  52 S16G23    29.56S
CANBY          CLOUDY    69  49  49 S14G23    29.54S
MARSHALL       CLOUDY    70  50  49 S18G25    29.55S
REDWOOD FALLS  MOSUNNY   69  48  47 SE24G32   29.58F
OLIVIA         MOSUNNY   70  50  49 SE17G29   29.59S
PIPESTONE      PTSUNNY   70  46  43 S15G23    29.54S
WINDOM         SUNNY     70  46  43 S14G25    29.59S
WORTHINGTON    MOSUNNY   70  50  49 S18G25    29.57S
JACKSON        SUNNY     68  46  45 SE16G23   29.61S
TRACY          PTSUNNY   70  54  56 S17G24    29.57S
SLAYTON        PTSUNNY   69  49  48 S22G29    29.58S
$$
MNZ065>067-074>077-082>085-091>093-252100-
   South Central Minnesota

CITY           SKY/WX    TMP DP  RH WIND       PRES   REMARKS
MANKATO        MOSUNNY   68  49  50 SE16G23   29.63F
NEW ULM        MOSUNNY   68  48  49 S15G25    29.61S
ST JAMES       MOSUNNY   70  52  52 SE15G22   29.62S
FAIRMONT       SUNNY     70  49  47 SE16G23   29.62S
GLENCOE        MOSUNNY   69  53  55 SE14      29.63S
FARIBAULT      MOSUNNY   66  50  55 SE12G20   29.66S
OWATONNA       MOSUNNY   64  50  59 SE8G20    29.65F
WASECA         CLOUDY    66  50  55 SE12G18   29.65F
ALBERT LEA     SUNNY     68  50  52 S10       29.65F
$$
MNZ078>079-086>088-094>096-252100-
   Southeast Minnesota

CITY           SKY/WX    TMP DP  RH WIND       PRES   REMARKS
ROCHESTER      MOSUNNY   65  53  65 S12       29.67S
RED WING       CLOUDY    68  48  49 SE6       29.66S
STANTON        PTSUNNY   69  51  52 S10       29.64F
DODGE CENTER   CLOUDY    66  50  55 S10G17    29.67F
WINONA         SUNNY     70  54  56 E7        29.67S
AUSTIN         CLOUDY    66  50  55 S7        29.66F
PRESTON        PTSUNNY   66  50  56 SE7       29.68F
$$
ABBREVIATIONS USED IN REMARKS
   TC - TEMPERATURES IN CELSIUS
  WCI - WIND CHILL INDEX
   HX - HEAT INDEX
  VSB - VISIBILITY
$$




USA.gov is the U.S. government's official web portal to all federal, state and local government web resources and services.